Kimball, NE

2:52 PM MST on January 17, 2017 (GMT -0700)
Kimball Municipal-Arraj

Weather History for KIBM - October, 2012

Change the Weather History Date:

Tuesday, October 30, 2012

  Actual Average (KSNY) Record (KSNY)
Temperature  
Mean Temperature 55 °F -  
Max Temperature 69 °F 57 °F 83 °F (1950)
Min Temperature 40 °F 26 °F 4 °F (1991)
Degree Days  
Heating Degree Days 10    
Growing Degree Days 5 (Base 50)    
Moisture  
Dew Point 32 °F    
Average Humidity 45    
Maximum Humidity 71    
Minimum Humidity 21    
Precipitation  
Precipitation 0.00 in - - ()
Sea Level Pressure  
Sea Level Pressure 30.09 in    
Wind  
Wind Speed 13 mph (WNW)    
Max Wind Speed 20 mph    
Max Gust Speed 26 mph    
Visibility 10 miles    
Events      
Averages and records for this station are not official NWS values.
T = Trace of Precipitation, MM = Missing Value Source: NWS Daily Summary

Daily Weather History Graph

Daily Weather History Graph

Search for Another Location

Airport or City:

Trip Planner

Search our weather history database for the weather conditions in past years. The results will help you decide how hot, cold, wet, or windy it might be!

Date:

Astronomy

Oct. 30, 2012 Rise Set
Actual Time 8:24 AM CDT 6:51 PM CDT
Civil Twilight 7:55 AM CDT 7:20 PM CDT
Nautical Twilight 7:23 AM CDT 7:52 PM CDT
Astronomical Twilight 6:51 AM CDT 8:25 PM CDT
Moon 7:22 PM CDT (10/30) 9:13 AM CDT (10/30)
Length of Visible Light 11h 24m
Length of Day
10h 27m
Full, 99% of the Moon is Illuminated
Oct 30
Full
Nov 6
Last Quarter
Nov 13
New
Nov 20
First Quarter
Nov 28
Full

Hourly Weather History & Observations

Time (CDT) Temp. Windchill Dew Point Humidity Pressure Visibility Wind Dir Wind Speed Gust Speed Precip Events Conditions
12:15 AM 46.9 °F - 35.1 °F 63% 30.07 in 10.0 mi West 13.8 mph - N/A   Scattered Clouds
12:35 AM 47.3 °F - 34.7 °F 62% 30.08 in 10.0 mi WNW 13.8 mph - N/A   Clear
12:55 AM 46.4 °F 40.4 °F 34.2 °F 62% 30.08 in 10.0 mi West 13.8 mph - N/A   Clear
1:15 AM 46.4 °F 40.4 °F 33.8 °F 62% 30.08 in 10.0 mi West 13.8 mph - N/A   Clear
1:35 AM 47.7 °F - 33.4 °F 58% 30.08 in 10.0 mi West 15.0 mph - N/A   Clear
2:55 AM 49.1 °F - 34.2 °F 56% 30.08 in 10.0 mi WNW 15.0 mph - N/A   Clear
3:15 AM 49.1 °F - 34.2 °F 56% 30.08 in 10.0 mi WNW 16.1 mph - N/A   Clear
3:55 AM 48.4 °F - 34.5 °F 59% 30.08 in 10.0 mi WNW 16.1 mph - N/A   Clear
4:15 AM 48.6 °F - 34.3 °F 58% 30.08 in 10.0 mi WNW 17.3 mph - N/A   Clear
4:35 AM 47.5 °F - 34.3 °F 60% 30.07 in 10.0 mi WNW 17.3 mph - N/A   Clear
4:55 AM 46.8 °F - 34.7 °F 63% 30.08 in 10.0 mi WNW 12.7 mph - N/A   Clear
5:15 AM 46.6 °F - 34.9 °F 64% 30.08 in 10.0 mi WNW 10.4 mph - N/A   Clear
5:35 AM 46.6 °F - 35.2 °F 65% 30.09 in 10.0 mi WNW 13.8 mph - N/A   Clear
5:55 AM 48.6 °F - 35.1 °F 60% 30.09 in 10.0 mi WNW 17.3 mph - N/A   Clear
6:15 AM 48.0 °F - 34.9 °F 60% 30.09 in 10.0 mi WNW 12.7 mph - N/A   Clear
6:35 AM 47.7 °F - 34.7 °F 61% 30.10 in 10.0 mi WNW 12.7 mph - N/A   Clear
6:55 AM 48.7 °F - 34.5 °F 58% 30.10 in 10.0 mi WNW 17.3 mph - N/A   Clear
7:15 AM 46.4 °F 40.4 °F 34.3 °F 63% 30.11 in 10.0 mi WNW 13.8 mph - N/A   Clear
7:35 AM 45.0 °F 38.5 °F 34.2 °F 66% 30.11 in 10.0 mi WNW 13.8 mph - N/A   Clear
7:55 AM 45.0 °F 38.5 °F 34.2 °F 66% 30.11 in 10.0 mi WNW 13.8 mph - N/A   Clear
8:35 AM 46.6 °F - 34.0 °F 62% 30.12 in 10.0 mi WNW 15.0 mph - N/A   Clear
8:55 AM 49.6 °F - 33.8 °F 54% 30.12 in 10.0 mi WNW 15.0 mph - N/A   Clear
9:15 AM 50.9 °F - 34.0 °F 52% 30.13 in 10.0 mi WNW 13.8 mph - N/A   Clear
9:35 AM 53.6 °F - 33.8 °F 47% 30.13 in 10.0 mi WNW 13.8 mph 19.6 mph N/A   Clear
9:55 AM 55.4 °F - 33.8 °F 44% 30.14 in 10.0 mi WNW 13.8 mph - N/A   Clear
10:15 AM 55.8 °F - 34.3 °F 44% 30.13 in 10.0 mi WNW 10.4 mph - N/A   Clear
10:35 AM 57.4 °F - 34.2 °F 42% 30.13 in 10.0 mi WNW 11.5 mph - N/A   Clear
10:55 AM 59.9 °F - 34.0 °F 38% 30.13 in 10.0 mi WNW 13.8 mph - N/A   Clear
11:15 AM 60.8 °F - 33.6 °F 36% 30.14 in 10.0 mi WNW 11.5 mph - N/A   Clear
11:35 AM 61.7 °F - 33.3 °F 34% 30.14 in 10.0 mi WNW 11.5 mph - N/A   Clear
11:55 AM 63.7 °F - 32.0 °F 31% 30.14 in 10.0 mi NW 11.5 mph - N/A   Clear
12:15 PM 63.9 °F - 31.8 °F 30% 30.13 in 10.0 mi NW 10.4 mph - N/A   Clear
12:35 PM 65.3 °F - 31.8 °F 29% 30.12 in 10.0 mi WNW 9.2 mph - N/A   Clear
12:55 PM 65.7 °F - 31.1 °F 27% 30.12 in 10.0 mi NW 9.2 mph - N/A   Clear
1:15 PM 64.8 °F - 30.2 °F 27% 30.11 in 10.0 mi NW 8.1 mph - N/A   Clear
1:35 PM 66.4 °F - 30.4 °F 26% 30.10 in 10.0 mi NW 5.8 mph - N/A   Clear
1:55 PM 67.6 °F - 30.0 °F 25% 30.08 in 10.0 mi NW 12.7 mph - N/A   Clear
2:15 PM 68.5 °F - 28.4 °F 22% 30.08 in 10.0 mi WNW 13.8 mph 17.3 mph N/A   Clear
2:35 PM 69.1 °F - 28.0 °F 22% 30.07 in 10.0 mi WNW 18.4 mph 24.2 mph N/A   Clear
2:55 PM 68.9 °F - 28.4 °F 22% 30.06 in 10.0 mi West 16.1 mph 21.9 mph N/A   Clear
3:15 PM 69.6 °F - 29.3 °F 22% 30.06 in 10.0 mi West 19.6 mph 25.3 mph N/A   Clear
3:35 PM 69.3 °F - 28.9 °F 22% 30.05 in 10.0 mi WNW 18.4 mph 26.5 mph N/A   Clear
3:55 PM 69.1 °F - 27.9 °F 21% 30.05 in 10.0 mi WNW 17.3 mph 25.3 mph N/A   Clear
4:15 PM 67.6 °F - 27.3 °F 22% 30.05 in 10.0 mi WNW 13.8 mph 20.7 mph N/A   Clear
4:35 PM 66.4 °F - 26.8 °F 23% 30.05 in 10.0 mi NW 16.1 mph 26.5 mph N/A   Clear
4:55 PM 67.3 °F - 27.3 °F 22% 30.05 in 10.0 mi NNW 18.4 mph 24.2 mph N/A   Clear
5:15 PM 67.5 °F - 26.8 °F 22% 30.05 in 10.0 mi NW 17.3 mph 23.0 mph N/A   Clear
5:35 PM 66.9 °F - 26.6 °F 22% 30.06 in 10.0 mi NW 15.0 mph 24.2 mph N/A   Clear
5:55 PM 65.7 °F - 27.3 °F 24% 30.06 in 10.0 mi NNW 15.0 mph 24.2 mph N/A   Clear
6:15 PM 63.9 °F - 28.6 °F 26% 30.06 in 10.0 mi NNW 15.0 mph - N/A   Clear
6:35 PM 61.5 °F - 28.9 °F 29% 30.07 in 10.0 mi NNW 11.5 mph - N/A   Clear
6:55 PM 58.8 °F - 29.8 °F 33% 30.06 in 10.0 mi NNW 5.8 mph - N/A   Clear
7:15 PM 61.0 °F - 29.1 °F 30% 30.08 in 10.0 mi NNW 11.5 mph - N/A   Clear
7:35 PM 59.0 °F - 29.5 °F 33% 30.08 in 10.0 mi NW 8.1 mph - N/A   Clear
7:55 PM 59.0 °F - 29.5 °F 33% 30.08 in 10.0 mi NW 8.1 mph - N/A   Clear
8:15 PM 57.2 °F - 30.7 °F 37% 30.09 in 10.0 mi NW 5.8 mph - N/A   Clear
8:35 PM 56.5 °F - 31.3 °F 38% 30.09 in 10.0 mi NW 8.1 mph - N/A   Clear
8:55 PM 50.4 °F - 32.0 °F 49% 30.09 in 10.0 mi WNW 6.9 mph - N/A   Clear
9:15 PM 48.7 °F - 32.4 °F 53% 30.09 in 10.0 mi NW 6.9 mph - N/A   Clear
9:35 PM 52.9 °F - 31.5 °F 44% 30.10 in 10.0 mi NW 6.9 mph - N/A   Clear
9:55 PM 50.0 °F - 32.0 °F 50% 30.10 in 10.0 mi NW 6.9 mph - N/A   Clear
10:15 PM 46.0 °F 43.1 °F 32.2 °F 58% 30.11 in 10.0 mi WNW 5.8 mph - N/A   Clear
10:35 PM 42.6 °F 37.8 °F 32.4 °F 67% 30.11 in 10.0 mi West 8.1 mph - N/A   Clear
10:55 PM 41.9 °F 39.0 °F 32.0 °F 68% 30.11 in 10.0 mi WNW 4.6 mph - N/A   Clear
11:15 PM 41.2 °F 36.6 °F 32.2 °F 70% 30.11 in 10.0 mi WNW 6.9 mph - N/A   Clear
11:35 PM 41.2 °F 35.5 °F 32.0 °F 70% 30.11 in 10.0 mi WNW 9.2 mph - N/A   Clear
11:55 PM 40.8 °F 36.2 °F 32.0 °F 71% 30.11 in 10.0 mi WNW 6.9 mph - N/A   Clear